GW2812 Weather Reports


time (UTC)temp
C
wind
direction
speed
KPH
gust
KPH
rain 1hr
cm
rain 24hr
cm
rain mn
cm
humidity
%
barometer
mb
20260503051418 11 346 11.3 14.5 0.00 0.00 0.00 51 1011.0
20260503050915 11 5 6.4 12.9 0.00 0.00 0.00 52 1011.0
20260503050410 11 337 4.8 16.1 0.00 0.00 0.00 52 1011.0
20260503045908 11 356 8.0 12.9 0.00 0.00 0.00 53 1011.3
20260503045406 11 356 14.5 17.7 0.00 0.00 0.00 53 1011.1
20260503044902 11 356 9.7 16.1 0.00 0.00 0.00 53 1011.1
20260503044359 11 345 6.4 14.5 0.00 0.00 0.00 54 1011.1
20260503043856 11 351 12.9 14.5 0.00 0.00 0.00 53 1011.0
20260503043353 11 18 8.0 20.9 0.00 0.00 0.00 53 1011.1
20260503042849 11 29 4.8 14.5 0.00 0.00 0.00 53 1011.0
20260503042346 11 352 11.3 17.7 0.00 0.00 0.00 53 1010.9
20260503041842 11 7 9.7 12.9 0.00 0.00 0.00 52 1011.1
20260503041340 11 2 4.8 14.5 0.00 0.00 0.00 52 1011.2
20260503040837 11 348 11.3 11.3 0.00 0.00 0.00 52 1011.2
20260503040335 11 357 6.4 11.3 0.00 0.00 0.00 53 1011.2
20260503035831 11 20 6.4 16.1 0.00 0.08 0.08 52 1011.1
20260503035328 11 1 8.0 9.7 0.00 0.08 0.08 52 1011.2
20260503034826 11 348 4.8 14.5 0.00 0.08 0.08 52 1011.2
20260503034323 11 5 11.3 14.5 0.00 0.08 0.08 52 1010.9
20260503033820 11 359 6.4 17.7 0.00 0.08 0.08 51 1010.9
20260503033318 11 345 6.4 12.9 0.00 0.08 0.08 52 1011.1
20260503032815 11 356 4.8 17.7 0.00 0.08 0.08 52 1011.1
20260503032314 11 355 8.0 12.9 0.00 0.08 0.08 53 1010.8
20260503031811 11 351 12.9 16.1 0.00 0.08 0.08 53 1010.8
20260503031309 11 352 8.0 11.3 0.00 0.08 0.08 53 1010.8
20260503030805 11 353 8.0 17.7 0.00 0.08 0.08 54 1011.0
20260503030301 12 0 12.9 19.3 0.00 0.08 0.08 54 1010.9
20260503025758 11 13 3.2 14.5 0.00 0.08 0.08 53 1011.0
20260503025256 12 347 11.3 12.9 0.00 0.08 0.08 52 1010.8
20260503024752 12 345 14.5 17.7 0.00 0.08 0.08 51 1011.1
20260503024249 12 357 11.3 16.1 0.00 0.08 0.08 51 1010.9
20260503023746 11 352 6.4 14.5 0.00 0.08 0.08 53 1010.9
20260503023243 11 350 6.4 14.5 0.00 0.08 0.08 57 1011.1
20260503022739 11 328 1.6 3.2 0.00 0.08 0.08 67 1010.9
20260503022234 11 341 4.8 8.0 0.00 0.08 0.08 67 1010.9
20260503021731 11 331 3.2 6.4 0.00 0.08 0.08 70 1011.1
20260503021227 11 328 4.8 4.8 0.00 0.08 0.08 75 1011.4
20260503020725 10 324 3.2 6.4 0.00 0.08 0.08 77 1011.2
20260503020222 10 329 3.2 4.8 0.00 0.08 0.08 81 1011.2
20260503015719 10 264 3.2 4.8 0.00 0.08 0.08 84 1011.5
20260503015216 10 222 1.6 1.6 0.00 0.08 0.08 86 1011.4
20260503014711 10 255 0.0 1.6 0.00 0.08 0.08 85 1011.5
20260503014210 10 249 1.6 3.2 0.00 0.08 0.08 85 1011.3
20260503013706 10 151 0.0 3.2 0.00 0.08 0.08 84 1011.2
20260503013204 10 206 3.2 3.2 0.00 0.08 0.08 83 1011.4
20260503012702 10 353 3.2 4.8 0.00 0.08 0.08 83 1011.2
20260503012158 10 300 0.0 4.8 0.00 0.08 0.08 82 1011.2
20260503011654 10 203 4.8 6.4 0.00 0.08 0.08 81 1011.3
20260503011152 10 358 4.8 6.4 0.00 0.08 0.08 82 1011.2
20260503010648 10 300 1.6 3.2 0.00 0.08 0.08 82 1011.3
20260503010145 11 160 1.6 3.2 0.00 0.08 0.08 81 1010.9
20260503005642 11 163 1.6 8.0 0.00 0.08 0.08 80 1010.8
20260503005139 11 165 1.6 3.2 0.00 0.08 0.08 80 1011.1
20260503004636 11 198 3.2 6.4 0.00 0.08 0.08 80 1011.0
20260503004134 11 170 1.6 3.2 0.00 0.08 0.08 81 1010.7
20260503003631 11 168 0.0 3.2 0.00 0.08 0.08 80 1010.8
20260503003128 11 170 3.2 3.2 0.00 0.08 0.08 80 1010.7
20260503002625 11 175 4.8 6.4 0.00 0.08 0.08 80 1010.8
20260503002122 11 201 4.8 4.8 0.00 0.08 0.08 80 1010.5
20260503001618 11 188 3.2 6.4 0.00 0.08 0.08 80 1010.7
20260503001115 11 135 4.8 6.4 0.00 0.08 0.08 80 1010.7
20260503000612 11 176 3.2 8.0 0.00 0.08 0.08 80 1010.6
20260503000109 11 150 3.2 6.4 0.00 0.08 0.08 80 1010.7
20260502235606 11 155 4.8 6.4 0.00 0.08 0.08 79 1010.6
20260502235104 11 142 6.4 9.7 0.00 0.08 0.08 79 1010.7
20260502234559 11 123 4.8 6.4 0.00 0.08 0.08 77 1010.5
20260502234058 12 131 6.4 8.0 0.00 0.08 0.08 76 1010.4
20260502233558 12 161 3.2 4.8 0.00 0.08 0.08 76 1010.4
20260502233055 12 127 4.8 6.4 0.00 0.08 0.08 76 1010.5
20260502232551 12 144 3.2 4.8 0.00 0.08 0.08 75 1010.2
20260502232049 12 148 4.8 8.0 0.00 0.08 0.08 74 1010.4
20260502231545 12 132 8.0 9.7 0.00 0.08 0.08 74 1010.4
20260502231043 12 127 6.4 9.7 0.00 0.08 0.08 74 1010.3
20260502230541 12 133 4.8 4.8 0.00 0.08 0.08 74 1010.3
20260502230039 12 139 4.8 9.7 0.00 0.08 0.08 74 1010.3
20260502225534 12 120 8.0 11.3 0.00 0.08 0.08 74 1010.5
20260502225032 13 161 4.8 12.9 0.00 0.08 0.08 74 1010.3
20260502224528 13 140 3.2 11.3 0.00 0.08 0.08 72 1010.5
20260502224025 13 129 6.4 11.3 0.00 0.08 0.08 70 1010.1
20260502223523 13 93 4.8 8.0 0.00 0.08 0.08 69 1010.2
20260502223021 13 102 4.8 11.3 0.00 0.08 0.08 68 1010.3
20260502222518 13 102 6.4 8.0 0.00 0.08 0.08 68 1010.2
20260502222014 13 122 11.3 11.3 0.00 0.08 0.08 68 1010.3
20260502221510 14 95 8.0 8.0 0.00 0.08 0.08 67 1010.2
20260502221008 14 81 3.2 8.0 0.00 0.08 0.08 65 1010.2
20260502220503 14 82 4.8 8.0 0.00 0.08 0.08 65 1010.4
20260502220000 14 95 6.4 8.0 0.00 0.08 0.08 65 1010.3
20260502215457 14 71 3.2 6.4 0.00 0.08 0.08 61 1010.3
20260502214954 14 110 4.8 9.7 0.00 0.08 0.08 62 1010.3
20260502214451 15 81 4.8 11.3 0.00 0.08 0.08 61 1009.9
20260502213948 14 123 4.8 9.7 0.00 0.08 0.08 61 1010.3
20260502213445 15 173 1.6 8.0 0.00 0.08 0.08 60 1010.0
20260502212943 15 33 8.0 8.0 0.00 0.08 0.08 57 1009.9
20260502212442 16 109 6.4 9.7 0.00 0.08 0.08 49 1009.9
20260502211939 16 291 1.6 3.2 0.00 0.08 0.08 44 1009.7
20260502211434 16 336 0.0 3.2 0.00 0.08 0.08 45 1009.6
20260502210932 16 305 8.0 8.0 0.00 0.08 0.08 44 1009.7
20260502210428 16 348 4.8 6.4 0.00 0.08 0.08 45 1009.6
20260502205926 16 353 3.2 4.8 0.00 0.08 0.08 46 1009.9
20260502205422 16 266 4.8 8.0 0.00 0.08 0.08 45 1009.9
20260502204919 16 307 0.0 8.0 0.00 0.08 0.08 45 1009.9
20260502204416 16 329 4.8 8.0 0.00 0.08 0.08 46 1009.7
20260502203914 16 342 3.2 11.3 0.00 0.08 0.08 46 1009.8
20260502203411 16 272 11.3 14.5 0.00 0.08 0.08 45 1009.6
20260502202907 16 4 8.0 22.5 0.00 0.08 0.08 47 1009.8
20260502202404 16 354 14.5 16.1 0.00 0.08 0.08 47 1009.6
20260502201902 17 229 6.4 9.7 0.00 0.08 0.08 44 1009.7
20260502201358 18 319 4.8 11.3 0.00 0.08 0.08 44 1009.9
20260502200855 18 286 9.7 11.3 0.00 0.08 0.08 41 1009.8
20260502200350 16 301 3.2 8.0 0.00 0.08 0.08 47 1009.9
20260502195848 17 282 3.2 11.3 0.00 0.08 0.08 47 1009.9
20260502195345 18 264 0.0 3.2 0.00 0.08 0.08 47 1010.0
20260502194841 16 218 3.2 8.0 0.00 0.08 0.08 51 1010.4
20260502194338 16 147 3.2 4.8 0.00 0.08 0.08 51 1010.2
20260502193834 16 55 6.4 6.4 0.00 0.08 0.08 53 1010.4
20260502193332 15 309 11.3 14.5 0.00 0.08 0.08 55 1010.3
20260502192827 16 6 4.8 6.4 0.00 0.08 0.08 54 1010.6
20260502192324 16 315 1.6 4.8 0.00 0.08 0.08 58 1010.6
20260502191821 15 339 1.6 11.3 0.00 0.08 0.08 54 1010.7
20260502191320 16 306 0.0 3.2 0.00 0.08 0.08 57 1010.8
20260502190816 16 349 3.2 3.2 0.00 0.08 0.08 60 1010.7
20260502190314 16 286 4.8 8.0 0.00 0.08 0.08 59 1011.0
20260502185809 15 122 6.4 8.0 0.00 0.08 0.08 62 1011.0
20260502185305 15 172 8.0 9.7 0.00 0.08 0.08 61 1011.1
20260502184802 15 189 4.8 11.3 0.00 0.08 0.08 64 1010.9
20260502184257 15 217 6.4 8.0 0.00 0.08 0.08 65 1011.1
20260502183754 15 212 4.8 9.7 0.00 0.08 0.08 66 1011.0
20260502183250 15 205 4.8 11.3 0.00 0.08 0.08 65 1011.2
20260502182746 15 207 6.4 11.3 0.00 0.08 0.08 66 1011.4
20260502182241 15 207 6.4 11.3 0.00 0.08 0.08 67 1011.5
20260502181737 15 214 8.0 14.5 0.00 0.08 0.08 67 1011.2
20260502181232 13 181 9.7 11.3 0.00 0.08 0.08 69 1011.3
20260502180728 14 195 8.0 14.5 0.00 0.08 0.08 69 1011.4
20260502180225 14 225 14.5 14.5 0.00 0.08 0.08 67 1011.2
20260502170144 13 182 11.3 11.3 0.00 0.08 0.08 73 1011.8
20260502164130 13 204 9.7 11.3 0.00 0.08 0.08 73 1012.1
20260502163626 13 177 6.4 8.0 0.00 0.08 0.08 74 1012.1
20260502163123 13 189 4.8 9.7 0.00 0.08 0.08 75 1012.1
20260502162620 12 221 8.0 9.7 0.00 0.08 0.08 76 1012.2
20260502162117 12 187 4.8 11.3 0.00 0.08 0.08 77 1011.9
20260502161614 12 213 9.7 12.9 0.00 0.08 0.08 75 1012.1
20260502161111 12 218 9.7 11.3 0.00 0.08 0.08 77 1012.2
20260502160609 12 223 4.8 8.0 0.00 0.08 0.08 77 1012.2
20260502160108 12 207 6.4 9.7 0.00 0.08 0.08 78 1012.1
20260502152022 12 190 8.0 9.7 0.00 0.08 0.08 81 1012.2
20260502151519 12 186 8.0 8.0 0.00 0.08 0.08 80 1012.2
20260502151016 12 186 6.4 8.0 0.00 0.08 0.08 81 1012.3
20260502150514 12 186 4.8 8.0 0.00 0.08 0.08 80 1012.2
20260502130353 11 345 6.4 8.0 0.00 0.08 0.08 81 1012.7
20260502123336 11 278 0.0 4.8 0.00 0.08 0.08 87 1012.7
20260502122833 11 291 3.2 3.2 0.00 0.08 0.08 88 1012.7
20260502122328 11 306 0.0 3.2 0.00 0.08 0.08 89 1012.6
20260502121827 11 242 1.6 3.2 0.00 0.08 0.08 89 1012.5
20260502121324 11 263 1.6 4.8 0.00 0.08 0.08 89 1012.6
20260502120821 11 220 4.8 4.8 0.00 0.08 0.08 89 1012.7
20260502120317 10 253 1.6 8.0 0.00 0.08 0.08 90 1012.6
20260502115815 10 224 6.4 9.7 0.00 0.08 0.08 90 1013.0
20260502115312 10 246 3.2 9.7 0.00 0.08 0.08 90 1012.6
20260502114808 10 251 6.4 8.0 0.00 0.08 0.08 90 1012.7
20260502114305 10 222 4.8 8.0 0.00 0.08 0.08 90 1012.8
20260502113802 10 245 3.2 9.7 0.00 0.08 0.08 90 1012.7
20260502113300 10 235 8.0 11.3 0.00 0.08 0.08 90 1012.5
20260502112758 10 220 6.4 8.0 0.00 0.08 0.08 90 1012.3
20260502112255 10 189 6.4 6.4 0.00 0.08 0.08 90 1012.3
20260502111752 10 217 4.8 8.0 0.05 0.08 0.08 89 1012.5
20260502111250 10 225 4.8 8.0 0.05 0.08 0.08 89 1012.1
20260502110747 10 188 3.2 8.0 0.00 0.08 0.08 89 1012.0
20260502110245 10 200 3.2 6.4 0.18 0.08 0.08 89 1012.1
20260502105743 10 153 3.2 4.8 0.18 0.05 0.05 89 1012.0
20260502105238 10 97 0.0 4.8 0.05 0.03 0.03 88 1012.2
20260502104737 10 197 1.6 3.2 0.18 0.03 0.03 88 1012.4
20260502104234 10 177 1.6 4.8 0.13 0.03 0.03 87 1012.0
20260502103731 10 212 4.8 8.0 0.00 0.00 0.00 86 1012.2
20260502103229 10 210 4.8 8.0 0.00 0.00 0.00 86 1012.5
20260502102725 10 212 4.8 9.7 0.00 0.00 0.00 85 1012.5
20260502102222 10 214 3.2 4.8 0.00 0.00 0.00 85 1012.1
20260502101720 10 251 6.4 8.0 0.00 0.00 0.00 85 1012.2
20260502101218 10 268 6.4 8.0 0.00 0.00 0.00 85 1012.3
20260502100716 10 244 6.4 11.3 0.00 0.00 0.00 85 1012.4
20260502100214 10 214 11.3 17.7 0.00 0.00 0.00 84 1012.4
20260502091148 10 223 4.8 9.7 0.00 0.00 0.00 83 1012.2
20260502090645 10 205 9.7 17.7 0.00 0.00 0.00 83 1012.0
20260502090142 10 212 16.1 22.5 0.00 0.00 0.00 83 1012.1
20260502080105 10 201 9.7 12.9 0.00 0.00 0.00 85 1012.3
20260502071038 10 209 14.5 19.3 0.00 0.00 0.00 87 1012.3
20260502070536 10 226 6.4 19.3 0.00 0.00 0.00 87 1012.5
20260502070033 10 220 8.0 19.3 0.00 0.00 0.00 87 1012.5
20260502065532 10 213 12.9 27.4 0.00 0.00 0.00 87 1012.4
20260502065029 10 241 8.0 22.5 0.00 0.00 0.00 87 1012.5
20260502064527 10 221 12.9 17.7 0.00 0.00 0.00 86 1012.4
20260502064024 10 217 16.1 22.5 0.00 0.00 0.00 86 1012.4
20260502063522 10 208 9.7 24.1 0.00 0.00 0.00 86 1012.6
20260502063020 10 209 27.4 29.0 0.00 0.00 0.00 86 1012.7
20260502062516 10 218 11.3 27.4 0.00 0.00 0.00 86 1012.3
20260502062015 10 207 8.0 19.3 0.00 0.00 0.00 86 1012.9
20260502061512 10 200 9.7 24.1 0.00 0.00 0.00 86 1012.5
20260502061009 10 220 12.9 19.3 0.00 0.00 0.00 86 1012.7
20260502060504 10 216 11.3 19.3 0.00 0.00 0.00 86 1013.0
20260502060001 10 222 8.0 20.9 0.00 0.00 0.00 86 1012.8
20260502055459 10 227 14.5 17.7 0.00 0.00 0.00 86 1012.6
20260502054958 10 226 12.9 24.1 0.00 0.00 0.00 86 1013.0
20260502054455 10 212 11.3 24.1 0.00 0.00 0.00 85 1012.8
20260502053952 10 211 8.0 33.8 0.00 0.00 0.00 85 1012.6
20260502053449 10 191 8.0 22.5 0.00 0.00 0.00 84 1012.3
20260502052947 11 211 9.7 16.1 0.00 0.00 0.00 84 1012.2
20260502052445 11 209 11.3 14.5 0.00 0.00 0.00 84 1012.4
20260502051943 11 231 9.7 11.3 0.00 0.00 0.00 83 1012.5